GSAT0225 (PRN E29)

Last updated on Sun Jul 21 2024 00:03:08 GMT+0000 (Coordinated Universal Time)

1 59598U 24079A 24201.66788694 -.00000008 00000+0 00000+0 0 9998 2 59598 54.7188 120.6028 0001627 229.3734 310.7645 1.70474132 1428

Satellite not in orbit

GSAT0225 (PRN E29)